Flag for France Weather past 2 weeks in Tours, France

Now
73 °F

Passing clouds.


Feels Like: 77 °F
Forecast: 56 / 73 °F
Wind: 3 mph from West

Location: Tours Airport

Current Time: Jul 7, 2015 at 11:35:35 AM

Latest Report: Jul 7, 2015 at 11:00 AM


Visibility: N/A

Pressure: 29.95 "Hg

Humidity: 57%

Dew point: 57 °F

Location of ToursLocation

Historic Weather in Tours — Graph

°F

Tours temperature yesterday

Maximum temperature yesterday: 88 °F (at 4:30 PM)
Minimum temperature yesterday: 55 °F (at 6:00 AM)
Average temperature yesterday: 72 °F

Past Weeks' High & Low Weather Summary

 TemperatureHumidityPressure
High97 °F (Jun 30, 6:00 PM)100% (Jun 23, 4:00 AM)30.21 "Hg (Jun 23, 4:00 AM)
Low48 °F (Jun 23, 5:30 AM)24% (Jun 26, 6:00 PM)29.89 "Hg (Jun 22, 3:30 PM)
Average73 °F57%30.09 "Hg
* Reported Jun 22 10:00 AM — Jul 7 10:00 AM, Tours, Weather by CustomWeather, © 2015

Note: Actual official high and low records may vary slightly from our data, if they occured in-between our weather recording intervals... More about our weather records

Advertising

Tours weather history for previous 24 hours

 ConditionsComfort  
Time TempWeatherWind HumidityBarometerVisibility
10:00 AM
Tue, Jul 7
72 °FSunny.10 mph61%29.95 "Hg10 mi
9:30 AM70 °FMild.6 mph60%29.95 "HgN/A
9:00 AM66 °FPassing clouds.6 mph68%29.95 "HgN/A
8:30 AM66 °FPassing clouds.6 mph64%29.98 "HgN/A
8:00 AM64 °FSunny.5 mph68%29.95 "Hg10 mi
7:30 AM64 °FSunny.5 mph68%29.95 "Hg10 mi
7:00 AM63 °FClear.5 mph68%29.95 "Hg10 mi
6:30 AM63 °FClear.3 mph68%29.95 "Hg10 mi
6:00 AM63 °FClear.3 mph68%29.95 "Hg10 mi
5:30 AM61 °FClear.3 mph72%29.95 "Hg10 mi
5:00 AM63 °FClear.3 mph68%29.95 "Hg10 mi
4:30 AM64 °FClear.2 mph64%29.95 "Hg10 mi
4:00 AM63 °FClear.2 mph68%29.98 "Hg10 mi
3:30 AM64 °FClear.2 mph64%29.95 "Hg10 mi
3:00 AM64 °FClear.6 mph64%29.98 "Hg10 mi
2:30 AM68 °FClear.No wind53%29.98 "Hg10 mi
2:00 AM68 °FClear.1 mph56%29.98 "Hg10 mi
1:30 AM70 °FClear.2 mph53%29.98 "Hg10 mi
1:00 AM70 °FClear.2 mph53%29.98 "Hg10 mi
12:30 AM72 °FClear.3 mph50%29.98 "Hg10 mi
12:00 AM73 °FClear.5 mph47%30.01 "Hg10 mi
11:00 PM
Mon, Jul 6
75 °FPassing clouds.5 mph50%30.01 "HgN/A
10:30 PM77 °FSunny.6 mph44%30.01 "Hg10 mi
10:00 PM79 °FSunny.5 mph42%29.98 "Hg10 mi
9:30 PM81 °FSunny.6 mph39%29.98 "Hg10 mi
9:00 PM82 °FPassing clouds.7 mph37%30.01 "HgN/A
8:30 PM86 °FPassing clouds.5 mph31%30.01 "HgN/A
8:00 PM86 °FPassing clouds.3 mph31%30.01 "HgN/A
7:30 PM86 °FPassing clouds.6 mph31%30.01 "HgN/A
7:00 PM88 °FSunny.3 mph29%30.01 "Hg10 mi
6:30 PM88 °FPassing clouds.7 mph27%30.01 "HgN/A
6:00 PM88 °FPassing clouds.3 mph29%30.04 "HgN/A
5:30 PM86 °FSunny.5 mph29%30.04 "Hg10 mi
5:00 PM86 °FSunny.5 mph29%30.04 "Hg10 mi
4:30 PM88 °FPassing clouds.3 mph29%30.07 "HgN/A
4:00 PM84 °FPassing clouds.3 mph33%30.07 "HgN/A
3:30 PM84 °FPassing clouds.6 mph33%30.07 "HgN/A
3:00 PM82 °FPleasantly warm.6 mph35%30.09 "HgN/A
2:30 PM82 °FSunny.5 mph35%30.09 "Hg10 mi
2:00 PM81 °FSunny.3 mph39%30.09 "Hg10 mi
1:30 PM81 °FPassing clouds.6 mph39%30.12 "HgN/A
1:00 PM77 °FPassing clouds.6 mph44%30.12 "HgN/A
12:30 PM77 °FPassing clouds.5 mph42%30.15 "HgN/A
12:00 PM75 °FSunny.5 mph44%30.15 "Hg10 mi
11:30 AM75 °FPassing clouds.3 mph41%30.15 "HgN/A
11:00 AM73 °FPassing clouds.3 mph44%30.15 "HgN/A
Weather by CustomWeather, © 2015

See weather overviewHow to use our weather pages